{"data":{"norad_id":58847,"intl_designator":"2024-017X","name":"STARLINK-31262","alt_names":[],"object_type":"PAYLOAD","status":"ACTIVE","operator":null,"country":"US","launch_date":"2024-01-24","launch_site_code":"AFWTR","launch_vehicle":null,"mission":null,"orbit_class":"UNKNOWN","rcs_meters":null,"size_class":null,"mass_kg":null,"dimensions":null,"purposes":["comms"],"wikipedia_slug":null,"has_3d_model":false,"image_url":null,"decayed_at":null,"tle_current":{"epoch":"2026-05-25T03:49:53.804064Z","epoch_age_seconds":57300,"freshness":"FRESH","line1":"1 58847U 24017X   26145.15965051  .00001388  00000+0  59027-4 0  9992","line2":"2 58847  53.1626 298.7821 0001399  91.2315 268.8846 15.30181578130484","mean_motion":15.30181578,"eccentricity":0.0001399,"inclination_deg":53.1626,"raan_deg":298.7821,"arg_perigee_deg":91.2315,"mean_anomaly_deg":268.8846,"bstar":5.9027e-5,"rev_number":13048,"period_min":94.106478649555,"perigee_km":474.31128309282,"apogee_km":476.22886639233,"semimajor_km":6853.4070747426,"source":"CELESTRAK","updated_at":"2026-05-25T13:38:18.757058Z"}}}